FW1189 Weather Reports


time (UTC)temp
C
wind
direction
speed
KPH
gust
KPH
rain 1hr
cm
rain 24hr
cm
rain mn
cm
humidity
%
barometer
mb
20260507232708 5 337 3.2 6.4 0.00 0.00 0.00 82 1013.2
20260507232407 5 338 3.2 6.4 0.00 0.00 0.00 82 1013.2
20260507232107 5 338 3.2 6.4 0.00 0.00 0.00 82 1013.4
20260507231829 5 338 3.2 6.4 0.00 0.00 0.00 82 1013.4
20260507231507 5 337 3.2 6.4 0.00 0.00 0.00 82 1013.5
20260507231207 5 337 1.6 6.4 0.00 0.00 0.00 83 1013.4
20260507230907 5 337 1.6 6.4 0.00 0.00 0.00 82 1013.5
20260507230607 5 337 1.6 6.4 0.00 0.00 0.00 83 1013.5
20260507230307 5 337 3.2 6.4 0.00 0.00 0.00 82 1013.5
20260507230029 6 337 3.2 6.4 0.00 0.00 0.00 82 1013.5
20260507225707 6 342 3.2 6.4 0.00 0.00 0.00 82 1013.4
20260507225407 6 340 3.2 6.4 0.00 0.00 0.00 81 1013.6
20260507225107 6 334 3.2 6.4 0.00 0.00 0.00 82 1013.1
20260507224807 6 327 3.2 6.4 0.00 0.00 0.00 81 1013.4
20260507224508 6 334 3.2 6.4 0.00 0.00 0.00 81 1013.3
20260507224208 6 20 3.2 11.3 0.00 0.00 0.00 80 1013.3
20260507223929 5 55 3.2 11.3 0.00 0.00 0.00 81 1013.3
20260507223608 6 77 3.2 11.3 0.00 0.00 0.00 80 1013.4
20260507223307 6 78 3.2 11.3 0.00 0.00 0.00 79 1013.3
20260507223007 6 77 3.2 9.7 0.00 0.00 0.00 79 1013.3
20260507222708 6 70 1.6 9.7 0.00 0.00 0.00 79 1013.2
20260507222407 5 52 0.0 6.4 0.00 0.00 0.00 79 1013.3
20260507222107 6 49 1.6 9.7 0.00 0.00 0.00 80 1013.3
20260507221829 6 63 3.2 17.7 0.00 0.00 0.00 80 1013.5
20260507221507 6 72 4.8 17.7 0.00 0.00 0.00 79 1013.3
20260507221228 6 74 4.8 17.7 0.00 0.00 0.00 79 1013.2
20260507220907 6 83 4.8 17.7 0.00 0.00 0.00 79 1013.4
20260507220607 6 82 4.8 17.7 0.00 0.00 0.00 79 1013.1
20260507220307 6 81 6.4 17.7 0.00 0.00 0.00 79 1013.4
20260507220022 6 81 8.0 17.7 0.00 0.00 0.00 79 1013.3
20260507215707 6 79 8.0 17.7 0.00 0.00 0.00 78 1013.3
20260507215407 6 75 8.0 22.5 0.00 0.00 0.00 82 1013.0
20260507215107 6 72 6.4 22.5 0.00 0.00 0.00 82 1012.9
20260507214807 6 71 8.0 22.5 0.00 0.00 0.00 82 1013.2
20260507214508 6 69 8.0 17.7 0.00 0.00 0.00 82 1013.1
20260507214228 6 76 8.0 17.7 0.00 0.00 0.00 82 1013.3
20260507213908 6 81 6.4 17.7 0.00 0.00 0.00 82 1013.1
20260507213629 5 86 4.8 17.7 0.00 0.00 0.00 82 1013.2
20260507213308 5 93 3.2 12.9 0.00 0.00 0.00 84 1013.1
20260507213007 5 98 0.0 3.2 0.00 0.00 0.00 86 1013.1
20260507212707 5 104 0.0 3.2 0.00 0.00 0.00 86 1013.1
20260507212407 5 0 0.0 3.2 0.00 0.00 0.00 85 1013.1
20260507212107 5 340 0.0 6.4 0.00 0.00 0.00 83 1013.2
20260507211807 5 343 1.6 6.4 0.00 0.00 0.00 82 1013.1
20260507211529 5 351 1.6 6.4 0.00 0.00 0.00 82 1013.0
20260507211208 5 39 1.6 6.4 0.00 0.00 0.00 82 1013.1
20260507210907 5 86 3.2 11.3 0.00 0.00 0.00 83 1013.1
20260507210609 6 94 4.8 11.3 0.00 0.00 0.00 82 1013.0
20260507210307 6 85 4.8 12.9 0.00 0.00 0.00 81 1013.0
20260507210007 6 78 3.2 12.9 0.00 0.00 0.00 80 1013.1
20260507205707 5 45 1.6 12.9 0.00 0.00 0.00 79 1013.0
20260507205407 5 7 1.6 12.9 0.00 0.00 0.00 81 1013.1
20260507205107 5 355 1.6 9.7 0.00 0.00 0.00 84 1013.0
20260507204829 6 349 3.2 9.7 0.00 0.00 0.00 83 1012.9
20260507204508 6 353 3.2 9.7 0.00 0.00 0.00 83 1012.9
20260507204208 5 352 3.2 9.7 0.00 0.00 0.00 84 1012.9
20260507203907 6 360 3.2 9.7 0.00 0.00 0.00 84 1012.8
20260507203628 6 359 3.2 9.7 0.00 0.00 0.00 84 1012.8
20260507203307 6 28 1.6 6.4 0.00 0.00 0.00 84 1012.8
20260507203007 6 51 1.6 6.4 0.00 0.00 0.00 83 1013.1
20260507202729 6 62 1.6 6.4 0.00 0.00 0.00 82 1013.0
20260507202428 6 76 1.6 9.7 0.00 0.00 0.00 81 1013.1
20260507202107 6 81 3.2 14.5 0.00 0.00 0.00 81 1013.2
20260507201829 6 85 4.8 17.7 0.00 0.00 0.00 81 1013.0
20260507201528 6 86 8.0 17.7 0.00 0.00 0.00 80 1013.2
20260507201207 6 86 9.7 17.7 0.00 0.00 0.00 79 1013.0
20260507200907 6 93 8.0 20.9 0.00 0.00 0.00 79 1013.0
20260507200608 6 95 8.0 22.5 0.00 0.00 0.00 80 1012.9
20260507200308 6 102 8.0 22.5 0.00 0.00 0.00 80 1012.9
20260507200007 6 100 8.0 22.5 0.00 0.00 0.00 80 1013.0
20260507195707 6 102 4.8 17.7 0.00 0.00 0.00 81 1013.1
20260507195429 6 100 1.6 14.5 0.00 0.00 0.00 81 1012.9
20260507195128 6 94 1.6 14.5 0.00 0.00 0.00 82 1012.9
20260507194807 6 79 1.6 14.5 0.00 0.00 0.00 82 1012.6
20260507194508 5 59 1.6 14.5 0.00 0.00 0.00 84 1012.7
20260507194207 5 359 0.0 6.4 0.00 0.00 0.00 85 1012.8
20260507193908 5 348 0.0 3.2 0.00 0.00 0.00 85 1012.5
20260507193629 5 2 0.0 3.2 0.00 0.00 0.00 85 1012.7
20260507193307 6 329 0.0 3.2 0.00 0.00 0.00 84 1012.4
20260507193007 6 332 1.6 3.2 0.00 0.00 0.00 83 1012.5
20260507192729 6 329 1.6 3.2 0.00 0.00 0.00 83 1012.2
20260507192407 6 328 1.6 3.2 0.00 0.00 0.00 83 1012.2
20260507192128 6 327 1.6 3.2 0.00 0.00 0.00 82 1012.2
20260507191829 6 327 1.6 3.2 0.00 0.00 0.00 83 1012.1
20260507191507 6 335 0.0 3.2 0.00 0.00 0.00 83 1012.2
20260507191208 6 95 0.0 3.2 0.00 0.00 0.00 82 1012.1
20260507190907 6 130 1.6 9.7 0.00 0.00 0.00 80 1012.3
20260507190607 6 119 3.2 9.7 0.00 0.00 0.00 80 1012.0
20260507190307 6 115 4.8 14.5 0.00 0.00 0.00 79 1012.1
20260507190028 6 108 6.4 14.5 0.00 0.00 0.00 79 1012.1
20260507185707 6 102 8.0 14.5 0.00 0.00 0.00 78 1012.1
20260507185428 6 96 6.4 14.5 0.00 0.00 0.00 77 1012.0
20260507185129 7 93 4.8 12.9 0.00 0.00 0.00 77 1011.9
20260507184808 6 90 3.2 12.9 0.00 0.00 0.00 77 1012.2
20260507184507 6 26 0.0 6.4 0.00 0.00 0.00 80 1011.8
20260507184207 6 56 3.2 12.9 0.00 0.00 0.00 79 1011.9
20260507183907 6 81 4.8 17.7 0.00 0.00 0.00 78 1011.9
20260507183607 7 89 4.8 17.7 0.00 0.00 0.00 79 1012.1
20260507183308 7 91 4.8 27.4 0.00 0.00 0.00 77 1012.0
20260507183007 7 89 8.0 27.4 0.00 0.00 0.00 77 1011.9
20260507182707 7 82 8.0 27.4 0.00 0.00 0.00 78 1012.1
20260507182408 7 81 8.0 27.4 0.00 0.00 0.00 78 1011.9
20260507182128 7 72 3.2 22.5 0.00 0.00 0.00 77 1011.9
20260507181808 7 84 3.2 20.9 0.00 0.00 0.00 80 1011.9
20260507181507 7 92 6.4 22.5 0.00 0.00 0.00 80 1011.6
20260507181207 7 91 6.4 22.5 0.00 0.00 0.00 78 1011.7
20260507180907 7 90 4.8 22.5 0.00 0.00 0.00 77 1011.6
20260507180607 7 84 1.6 14.5 0.00 0.00 0.00 78 1011.7
20260507180307 7 92 3.2 14.5 0.00 0.00 0.00 80 1011.6
20260507180008 7 91 3.2 14.5 0.00 0.00 0.00 79 1011.6
20260507175707 7 86 8.0 24.1 0.00 0.00 0.00 78 1011.6
20260507175428 7 84 12.9 27.4 0.00 0.00 0.00 77 1011.7
20260507175108 7 83 19.3 33.8 0.00 0.00 0.00 78 1011.5
20260507174807 7 85 20.9 33.8 0.00 0.00 0.00 76 1011.5
20260507174508 7 88 20.9 33.8 0.00 0.00 0.00 78 1011.4
20260507174208 7 90 22.5 37.0 0.00 0.00 0.00 78 1011.4
20260507173908 8 90 25.7 43.5 0.00 0.00 0.00 77 1011.3
20260507173607 8 90 24.1 43.5 0.00 0.00 0.00 76 1011.5
20260507173328 8 89 22.5 43.5 0.00 0.00 0.00 75 1011.3
20260507173028 8 90 19.3 43.5 0.00 0.00 0.00 76 1011.3
20260507172707 8 86 16.1 33.8 0.00 0.00 0.00 75 1011.2
20260507172428 8 88 16.1 33.8 0.00 0.00 0.00 71 1011.2
20260507172108 8 90 19.3 33.8 0.00 0.00 0.00 73 1011.3
20260507171807 8 95 19.3 37.0 0.00 0.00 0.00 71 1011.2
20260507171507 8 93 19.3 37.0 0.00 0.00 0.00 72 1011.2
20260507171207 9 92 17.7 37.0 0.00 0.00 0.00 72 1011.2
20260507170907 9 87 17.7 29.0 0.00 0.00 0.00 70 1011.2
20260507170607 9 86 17.7 32.2 0.00 0.00 0.00 70 1011.3
20260507170328 9 86 17.7 32.2 0.00 0.00 0.00 69 1011.0
20260507170028 9 91 16.1 32.2 0.00 0.00 0.00 69 1011.0
20260507165707 9 92 16.1 33.8 0.00 0.00 0.00 71 1011.0
20260507165407 10 94 16.1 33.8 0.00 0.00 0.00 70 1011.0
20260507165108 9 96 16.1 33.8 0.00 0.00 0.00 72 1011.1
20260507164828 10 104 12.9 29.0 0.00 0.00 0.00 71 1011.0
20260507164507 10 125 8.0 22.5 0.00 0.00 0.00 70 1011.1
20260507164207 11 140 6.4 20.9 0.00 0.00 0.00 66 1011.0
20260507163907 11 172 4.8 17.7 0.00 0.00 0.00 65 1011.3
20260507163607 11 178 4.8 12.9 0.00 0.00 0.00 68 1011.1
20260507163307 11 182 4.8 12.9 0.00 0.00 0.00 66 1011.2
20260507163007 11 181 3.2 12.9 0.00 0.00 0.00 65 1011.3
20260507162707 12 172 1.6 6.4 0.00 0.00 0.00 64 1011.1
20260507162407 12 139 1.6 11.3 0.00 0.00 0.00 64 1011.1
20260507162107 11 133 3.2 12.9 0.00 0.00 0.00 65 1011.2
20260507161807 11 116 4.8 20.9 0.00 0.00 0.00 69 1011.0
20260507161528 11 107 6.4 20.9 0.00 0.00 0.00 70 1011.1
20260507161207 10 103 9.7 27.4 0.00 0.00 0.00 69 1011.1
20260507160929 10 105 11.3 27.4 0.00 0.00 0.00 72 1011.0
20260507160628 10 113 11.3 27.4 0.00 0.00 0.00 72 1011.1
20260507160328 10 120 11.3 25.7 0.00 0.00 0.00 69 1011.0
20260507160007 10 118 11.3 24.1 0.00 0.00 0.00 71 1011.1
20260507155706 10 122 11.3 24.1 0.00 0.00 0.00 72 1010.8
20260507155407 10 124 12.9 24.1 0.00 0.00 0.00 72 1010.9
20260507155106 10 132 11.3 22.5 0.00 0.00 0.00 71 1010.9
20260507154808 9 124 9.7 22.5 0.00 0.00 0.00 71 1010.9
20260507154507 9 116 11.3 24.1 0.00 0.00 0.00 70 1011.0
20260507154207 9 106 11.3 24.1 0.00 0.00 0.00 73 1010.7
20260507153907 9 112 12.9 29.0 0.00 0.00 0.00 72 1011.1
20260507153607 10 104 12.9 29.0 0.00 0.00 0.00 72 1010.9
20260507153328 10 106 12.9 29.0 0.00 0.00 0.00 70 1010.8
20260507153007 10 108 14.5 33.8 0.00 0.00 0.00 71 1011.1
20260507152707 10 108 16.1 33.8 0.00 0.00 0.00 70 1010.9
20260507152407 10 112 16.1 33.8 0.00 0.00 0.00 69 1010.9
20260507152107 10 107 14.5 33.8 0.00 0.00 0.00 68 1011.2
20260507151828 10 117 9.7 25.7 0.00 0.00 0.00 70 1010.9
20260507151507 9 116 11.3 27.4 0.00 0.00 0.00 70 1010.9
20260507151228 9 112 11.3 35.4 0.00 0.00 0.00 70 1010.9
20260507150908 9 115 11.3 35.4 0.00 0.00 0.00 72 1010.8
20260507150607 9 109 11.3 35.4 0.00 0.00 0.00 71 1010.7
20260507150307 10 115 9.7 33.8 0.00 0.00 0.00 70 1010.7
20260507150007 10 113 11.3 33.8 0.00 0.00 0.00 69 1010.9
20260507145707 9 118 11.3 24.1 0.00 0.00 0.00 71 1011.0
20260507145407 9 117 9.7 24.1 0.00 0.00 0.00 72 1010.7
20260507145108 10 135 8.0 20.9 0.00 0.00 0.00 69 1011.0
20260507144807 11 132 8.0 22.5 0.00 0.00 0.00 67 1010.9
20260507144507 11 121 9.7 29.0 0.00 0.00 0.00 66 1010.9
20260507144208 10 105 12.9 33.8 0.00 0.00 0.00 68 1010.8
20260507143907 10 101 14.5 33.8 0.00 0.00 0.00 70 1011.0
20260507143607 10 109 12.9 33.8 0.00 0.00 0.00 70 1011.0
20260507143307 10 115 9.7 22.5 0.00 0.00 0.00 68 1010.9
20260507143007 10 120 9.7 22.5 0.00 0.00 0.00 67 1011.1
20260507142707 10 117 11.3 25.7 0.00 0.00 0.00 67 1011.0
20260507142428 10 108 11.3 25.7 0.00 0.00 0.00 68 1010.9
20260507142107 10 110 9.7 25.7 0.00 0.00 0.00 71 1011.0
20260507141807 10 116 9.7 25.7 0.00 0.00 0.00 63 1011.0
20260507141507 10 124 8.0 20.9 0.00 0.00 0.00 72 1010.7
20260507141207 10 131 8.0 20.9 0.00 0.00 0.00 68 1011.0
20260507140928 10 137 8.0 20.9 0.00 0.00 0.00 66 1011.0
20260507140607 11 135 6.4 17.7 0.00 0.00 0.00 65 1010.9
20260507140307 11 144 6.4 24.1 0.00 0.00 0.00 65 1011.0
20260507140007 11 136 8.0 24.1 0.00 0.00 0.00 65 1010.8
20260507135707 11 135 8.0 24.1 0.00 0.00 0.00 62 1010.9
20260507135407 11 125 8.0 17.7 0.00 0.00 0.00 64 1010.9
20260507135107 11 117 8.0 17.7 0.00 0.00 0.00 62 1010.9
20260507134807 11 127 9.7 22.5 0.00 0.00 0.00 65 1011.0
20260507134508 11 123 9.7 22.5 0.00 0.00 0.00 66 1010.9
20260507134207 11 118 11.3 24.1 0.00 0.00 0.00 62 1011.0
20260507133907 10 115 11.3 24.1 0.00 0.00 0.00 63 1011.1
20260507133607 10 110 11.3 24.1 0.00 0.00 0.00 64 1011.0
20260507133307 10 125 9.7 20.9 0.00 0.00 0.00 64 1011.0
20260507133007 10 143 11.3 20.9 0.00 0.00 0.00 62 1011.1
20260507132707 12 147 11.3 20.9 0.00 0.00 0.00 62 1011.1
20260507132406 11 138 11.3 22.5 0.00 0.00 0.00 59 1010.9
20260507132106 11 127 9.7 22.5 0.00 0.00 0.00 62 1011.1
20260507131807 11 144 8.0 22.5 0.00 0.00 0.00 61 1011.0
20260507131507 11 149 8.0 22.5 0.00 0.00 0.00 61 1011.1
20260507131207 10 129 8.0 22.5 0.00 0.00 0.00 61 1011.1
20260507130907 11 127 8.0 22.5 0.00 0.00 0.00 61 1010.9
20260507130607 11 110 8.0 24.1 0.00 0.00 0.00 59 1011.1
20260507130307 12 107 11.3 33.8 0.00 0.00 0.00 58 1011.3
20260507130007 11 103 12.9 33.8 0.00 0.00 0.00 61 1011.2
20260507125707 11 106 14.5 33.8 0.00 0.00 0.00 61 1011.0
20260507125407 11 107 12.9 32.2 0.00 0.00 0.00 67 1011.2
20260507125107 11 120 11.3 27.4 0.00 0.00 0.00 62 1011.1
20260507124807 11 117 9.7 24.1 0.00 0.00 0.00 61 1010.9
20260507124507 11 123 9.7 32.2 0.00 0.00 0.00 63 1011.0
20260507124207 11 122 9.7 32.2 0.00 0.00 0.00 58 1011.0
20260507123906 11 124 11.3 32.2 0.00 0.00 0.00 58 1011.0
20260507123607 11 122 9.7 32.2 0.00 0.00 0.00 60 1011.2
20260507123307 12 126 9.7 22.5 0.00 0.00 0.00 58 1011.1
20260507123007 11 112 11.3 27.4 0.00 0.00 0.00 57 1011.1
20260507122708 11 126 11.3 27.4 0.00 0.00 0.00 62 1011.3
20260507122428 11 129 9.7 27.4 0.00 0.00 0.00 60 1011.1
20260507122128 11 147 8.0 27.4 0.00 0.00 0.00 57 1011.0
20260507121806 12 161 8.0 17.7 0.00 0.00 0.00 53 1011.2
20260507121507 12 167 6.4 17.7 0.00 0.00 0.00 54 1011.2
20260507121206 11 151 8.0 24.1 0.00 0.00 0.00 55 1011.0
20260507120906 11 136 9.7 25.7 0.00 0.00 0.00 55 1011.4
20260507120607 10 133 11.3 27.4 0.00 0.00 0.00 59 1011.1
20260507120306 10 139 9.7 27.4 0.00 0.00 0.00 56 1011.2
20260507120028 11 134 9.7 27.4 0.00 0.00 0.00 59 1011.0
20260507115707 11 121 12.9 27.4 0.00 0.00 0.00 55 1011.2
20260507115407 11 107 12.9 27.4 0.00 0.00 0.00 56 1011.1
20260507115107 10 109 12.9 27.4 0.00 0.00 0.00 58 1011.0
20260507114806 10 113 11.3 25.7 0.00 0.00 0.00 61 1010.9
20260507114506 11 115 11.3 24.1 0.00 0.00 0.00 56 1011.2
20260507114207 11 111 11.3 25.7 0.00 0.00 0.00 57 1011.1
20260507113906 10 109 11.3 25.7 0.00 0.00 0.00 55 1011.1
20260507113606 10 115 11.3 25.7 0.00 0.00 0.00 57 1011.1
20260507113328 10 120 11.3 25.7 0.00 0.00 0.00 60 1011.2
20260507113007 10 127 11.3 24.1 0.00 0.03 0.00 58 1011.2
20260507112727 10 117 12.9 24.1 0.00 0.03 0.00 57 1011.4
20260507112406 10 117 12.9 24.1 0.00 0.03 0.00 59 1011.2
20260507112107 10 109 12.9 24.1 0.00 0.03 0.00 58 1011.4
20260507111807 10 113 11.3 22.5 0.00 0.05 0.00 56 1011.4
20260507111528 10 117 9.7 24.1 0.00 0.05 0.00 57 1011.3
20260507111207 10 117 11.3 24.1 0.00 0.05 0.00 53 1011.3
20260507110906 11 122 9.7 24.1 0.00 0.05 0.00 57 1011.4
20260507110607 11 115 11.3 24.1 0.00 0.05 0.00 56 1011.1
20260507110307 10 116 9.7 22.5 0.00 0.05 0.00 61 1011.2
20260507110007 11 122 9.7 29.0 0.00 0.05 0.00 58 1011.2
20260507105707 11 136 8.0 29.0 0.00 0.10 0.00 59 1011.1
20260507105407 10 132 8.0 29.0 0.00 0.13 0.00 61 1011.2
20260507105128 11 129 8.0 29.0 0.00 0.15 0.00 59 1011.2
20260507104807 11 122 8.0 25.7 0.00 0.18 0.00 60 1011.2
20260507104506 10 126 8.0 25.7 0.00 0.20 0.00 63 1011.2
20260507104206 10 129 6.4 25.7 0.00 0.23 0.00 54 1011.3
20260507103907 11 143 6.4 14.5 0.00 0.23 0.00 49 1011.3
20260507103607 11 148 6.4 17.7 0.00 0.23 0.00 55 1011.2
20260507103328 11 156 6.4 17.7 0.00 0.23 0.00 59 1011.2
20260507103007 10 147 6.4 17.7 0.00 0.23 0.00 59 1011.1
20260507102706 11 150 6.4 17.7 0.00 0.23 0.00 57 1011.4
20260507102407 11 143 6.4 14.5 0.00 0.23 0.00 46 1011.5
20260507102106 11 142 6.4 14.5 0.00 0.23 0.00 48 1011.6
20260507101807 11 136 4.8 14.5 0.00 0.23 0.00 54 1011.5
20260507101528 11 135 4.8 11.3 0.00 0.23 0.00 50 1011.5
20260507101206 11 138 4.8 11.3 0.00 0.23 0.00 55 1011.3
20260507100927 11 139 4.8 11.3 0.00 0.23 0.00 56 1011.5
20260507100607 10 124 4.8 11.3 0.00 0.23 0.00 54 1011.4
20260507100306 10 118 4.8 11.3 0.00 0.23 0.00 54 1011.4
20260507100007 10 116 6.4 11.3 0.00 0.23 0.00 53 1011.4
20260507095707 10 129 4.8 11.3 0.00 0.23 0.00 53 1011.5
20260507095427 10 136 4.8 11.3 0.00 0.23 0.00 55 1011.3
20260507095106 10 136 6.4 11.3 0.00 0.23 0.00 52 1011.3
20260507094806 10 133 4.8 11.3 0.00 0.23 0.00 55 1011.3
20260507094507 10 139 4.8 11.3 0.00 0.23 0.00 61 1011.3
20260507094208 11 153 3.2 9.7 0.00 0.23 0.00 52 1011.3
20260507093907 11 153 3.2 9.7 0.00 0.23 0.00 52 1011.2
20260507093607 11 150 3.2 9.7 0.00 0.23 0.00 48 1011.5
20260507093328 11 159 3.2 9.7 0.00 0.23 0.00 53 1011.2
20260507093007 10 165 4.8 9.7 0.00 0.28 0.00 56 1011.2
20260507092707 10 165 4.8 9.7 0.00 0.28 0.00 52 1011.4
20260507092408 10 158 3.2 9.7 0.00 0.28 0.00 47 1011.2
20260507092107 11 148 3.2 9.7 0.00 0.28 0.00 47 1011.2
20260507091807 10 148 3.2 9.7 0.00 0.28 0.00 55 1011.3
20260507091506 10 136 3.2 9.7 0.00 0.28 0.00 52 1011.2
20260507091206 10 127 4.8 9.7 0.00 0.30 0.00 46 1011.3
20260507090907 10 120 4.8 9.7 0.00 0.30 0.00 48 1011.3
20260507090607 10 119 4.8 9.7 0.00 0.30 0.00 50 1011.3
20260507090328 10 120 4.8 9.7 0.00 0.30 0.00 55 1011.4
20260507090028 10 134 3.2 6.4 0.00 0.30 0.00 52 1011.3
20260507085707 10 137 3.2 6.4 0.00 0.30 0.00 54 1011.2
20260507085427 10 136 3.2 6.4 0.00 0.33 0.00 50 1011.2
20260507085106 10 136 3.2 6.4 0.00 0.33 0.00 53 1011.1
20260507084806 10 129 3.2 6.4 0.00 0.33 0.00 56 1010.9
20260507084506 10 129 3.2 6.4 0.00 0.33 0.00 55 1011.1
20260507084206 10 124 3.2 6.4 0.00 0.33 0.00 53 1011.0
20260507083907 10 126 3.2 6.4 0.00 0.33 0.00 56 1011.2
20260507083606 10 131 1.6 6.4 0.00 0.33 0.00 53 1011.0
20260507083306 10 137 1.6 6.4 0.00 0.33 0.00 55 1011.0
20260507083007 10 135 1.6 6.4 0.00 0.33 0.00 54 1010.9
20260507082727 10 132 1.6 6.4 0.00 0.33 0.00 56 1011.2
20260507082407 10 130 1.6 6.4 0.00 0.33 0.00 54 1010.9
20260507082107 10 121 1.6 6.4 0.00 0.33 0.00 58 1011.0
20260507081807 10 114 3.2 6.4 0.00 0.33 0.00 54 1011.1
20260507081506 9 114 3.2 6.4 0.00 0.33 0.00 59 1011.0
20260507081206 9 116 3.2 6.4 0.00 0.33 0.00 60 1011.0
20260507080907 9 121 1.6 6.4 0.00 0.36 0.00 58 1010.9
20260507080606 9 136 1.6 6.4 0.00 0.36 0.00 59 1010.9
20260507080306 9 144 1.6 3.2 0.00 0.36 0.00 56 1010.8
20260507080008 9 144 1.6 3.2 0.00 0.38 0.00 55 1010.7
20260507075707 9 149 1.6 3.2 0.00 0.38 0.00 53 1010.9
20260507075406 9 155 1.6 6.4 0.00 0.38 0.00 53 1010.9
20260507075127 9 161 1.6 6.4 0.00 0.43 0.00 56 1010.9
20260507074827 9 151 1.6 6.4 0.00 0.43 0.00 54 1010.9
20260507074506 8 131 1.6 6.4 0.00 0.46 0.00 55 1010.9
20260507074207 8 116 3.2 6.4 0.00 0.48 0.00 57 1010.8
20260507073907 8 111 3.2 9.7 0.00 0.51 0.00 58 1010.8
20260507073607 8 108 4.8 9.7 0.00 0.51 0.00 63 1010.7
20260507073306 7 109 4.8 9.7 0.00 0.53 0.00 55 1010.7
20260507073007 8 114 4.8 9.7 0.00 0.56 0.00 52 1010.7
20260507072707 7 117 4.8 9.7 0.00 0.56 0.00 57 1010.8
20260507072428 7 119 4.8 9.7 0.00 0.61 0.00 59 1010.7
20260507072107 7 112 3.2 6.4 0.00 0.64 0.00 57 1010.9
20260507071806 7 110 3.2 6.4 0.00 0.64 0.00 52 1010.8
20260507071527 7 111 3.2 6.4 0.00 0.64 0.00 54 1010.7
20260507071206 8 116 3.2 6.4 0.00 0.64 0.00 56 1010.7
20260507070906 8 117 3.2 6.4 0.00 0.66 0.00 54 1010.6
20260507070607 8 109 3.2 6.4 0.00 0.66 0.00 58 1010.7
20260507070306 8 110 1.6 6.4 0.00 0.69 0.00 53 1010.9
20260507070010 8 109 1.6 6.4 0.00 0.69 0.00 54 1010.7
20260507065707 8 126 0.0 3.2 0.00 0.69 0.00 53 1010.6
20260507065406 9 117 0.0 3.2 0.00 0.69 0.00 51 1010.7
20260507065107 9 99 0.0 3.2 0.00 0.69 0.00 52 1010.8
20260507064806 8 92 1.6 3.2 0.00 0.69 0.00 58 1010.7
20260507064506 8 91 1.6 3.2 0.00 0.69 0.00 57 1010.7
20260507064206 8 92 1.6 3.2 0.00 0.69 0.00 55 1010.7
20260507063906 8 86 1.6 3.2 0.00 0.69 0.00 59 1010.7
20260507063610 8 79 1.6 3.2 0.00 0.69 0.00 58 1010.7
20260507063307 8 72 0.0 3.2 0.00 0.69 0.00 61 1010.7
20260507063027 8 70 0.0 3.2 0.00 0.69 0.00 59 1010.7
20260507062728 8 67 0.0 3.2 0.00 0.69 0.00 63 1010.6
20260507062427 8 0 0.0 3.2 0.00 0.69 0.00 60 1010.9
20260507062106 8 73 0.0 3.2 0.00 0.69 0.00 59 1010.7
20260507061806 7 50 0.0 3.2 0.00 0.69 0.00 60 1010.7
20260507061506 7 16 0.0 3.2 0.00 0.69 0.00 60 1010.7
20260507061206 6 0 0.0 3.2 0.00 0.69 0.00 65 1010.6
20260507060907 6 0 0.0 3.2 0.00 0.71 0.00 65 1010.6
20260507060606 7 0 0.0 3.2 0.00 0.76 0.00 62 1010.7
20260507060306 6 0 0.0 3.2 0.00 0.79 0.00 64 1010.5
20260507060006 6 0 0.0 3.2 0.00 0.81 0.00 64 1010.6
20260507055727 6 0 0.0 3.2 0.00 0.86 0.00 63 1010.6
20260507055406 6 0 0.0 0.0 0.00 0.89 0.00 64 1010.7
20260507055106 6 0 0.0 0.0 0.00 0.89 0.00 61 1010.6
20260507054806 5 0 0.0 0.0 0.00 0.97 0.00 62 1010.6
20260507054507 4 0 0.0 0.0 0.00 0.99 0.00 65 1010.5
20260507054206 3 0 0.0 0.0 0.00 1.02 0.00 67 1010.4
20260507053907 2 0 0.0 3.2 0.00 1.04 0.00 69 1010.6
20260507053606 1 337 0.0 3.2 0.00 1.09 0.00 72 1010.4
20260507053306 1 337 0.0 3.2 0.00 1.12 0.00 73 1010.4
20260507053006 1 337 0.0 3.2 0.00 1.12 0.00 73 1010.2
20260507052727 2 337 1.6 3.2 0.00 1.14 0.00 71 1010.4
20260507052406 1 337 0.0 3.2 0.00 1.14 0.00 73 1010.3
20260507052106 1 337 0.0 3.2 0.00 1.17 0.00 77 1010.3
20260507051806 1 337 0.0 3.2 0.00 1.17 0.00 78 1010.3
20260507051506 1 340 0.0 3.2 0.00 1.19 0.00 79 1010.3
20260507051207 1 344 0.0 3.2 0.00 1.22 0.00 78 1010.1
20260507050927 1 344 0.0 3.2 0.00 1.22 0.00 79 1010.1
20260507050606 1 0 0.0 3.2 0.00 1.22 0.00 78 1010.3
20260507050307 1 352 0.0 3.2 0.00 1.22 0.00 77 1010.2
20260507050007 1 334 0.0 3.2 0.00 1.22 0.00 74 1010.1
20260507045707 1 331 0.0 3.2 0.00 1.22 0.00 74 1010.2
20260507045427 1 331 0.0 3.2 0.00 1.22 0.00 73 1010.2
20260507045106 1 356 0.0 3.2 0.00 1.22 0.00 77 1009.8
20260507044806 1 1 0.0 3.2 0.00 1.27 0.00 79 1010.1
20260507044507 1 7 0.0 3.2 0.00 1.27 0.00 79 1010.1
20260507044206 0 355 0.0 3.2 0.00 1.27 0.00 79 1010.1
20260507043907 0 71 0.0 3.2 0.00 1.27 0.00 81 1010.1
20260507043606 0 83 0.0 3.2 0.00 1.27 0.00 80 1010.0
20260507043306 0 53 0.0 3.2 0.00 1.27 0.00 80 1009.8
20260507043006 0 19 0.0 3.2 0.00 1.27 0.00 80 1009.8
20260507042706 0 2 0.0 3.2 0.00 1.27 0.00 81 1009.8
20260507042407 0 358 0.0 3.2 0.00 1.27 0.00 81 1009.6
20260507042107 1 348 1.6 6.4 0.00 1.27 0.00 80 1009.6
20260507041827 1 348 1.6 6.4 0.00 1.27 0.00 79 1009.6
20260507041507 1 347 3.2 6.4 0.00 1.27 0.00 79 1009.6
20260507041206 1 349 1.6 6.4 0.00 1.27 0.00 77 1009.6
20260507040906 1 344 1.6 3.2 0.00 1.27 0.00 77 1009.5
20260507040606 1 344 1.6 3.2 0.00 1.27 0.00 76 1009.6
20260507040307 1 339 1.6 3.2 0.00 1.27 0.00 76 1009.6
20260507040006 1 339 1.6 3.2 0.00 1.27 0.00 76 1009.8
20260507035707 2 339 1.6 3.2 0.00 1.27 0.00 74 1009.5
20260507035406 2 337 3.2 6.4 0.00 1.27 0.00 72 1009.6
20260507035106 2 337 3.2 6.4 0.00 1.27 0.00 73 1009.7
20260507034827 2 337 3.2 6.4 0.00 1.27 0.00 72 1009.6
20260507034506 2 334 3.2 6.4 0.00 1.27 0.00 72 1009.6
20260507034206 2 338 3.2 6.4 0.00 1.27 0.00 73 1009.6
20260507033906 1 338 3.2 6.4 0.00 1.27 0.00 72 1009.5
20260507033606 1 340 3.2 6.4 0.00 1.27 0.00 76 1009.7
20260507033328 2 339 3.2 6.4 0.00 1.27 0.00 75 1009.6
20260507033027 2 337 3.2 6.4 0.00 1.27 0.00 74 1009.8
20260507032706 1 337 3.2 6.4 0.00 1.27 0.00 74 1009.7
20260507032406 1 342 1.6 6.4 0.00 1.27 0.00 75 1009.8
20260507032107 1 346 1.6 6.4 0.00 1.27 0.00 76 1009.7
20260507031827 1 350 1.6 6.4 0.00 1.27 0.00 76 1009.7
20260507031527 1 347 1.6 6.4 0.00 1.27 0.00 78 1009.7
20260507031206 1 347 1.6 6.4 0.00 1.27 0.00 78 1009.7
20260507030906 1 348 1.6 6.4 0.00 1.27 0.00 79 1009.7
20260507030606 0 3 0.0 6.4 0.00 1.27 0.00 81 1009.6
20260507030327 1 358 0.0 3.2 0.00 1.27 0.00 81 1009.6
20260507030027 1 353 0.0 3.2 0.00 1.27 0.00 81 1009.6
20260507025706 1 346 1.6 3.2 0.00 1.27 0.00 81 1009.5
20260507025407 1 347 1.6 3.2 0.00 1.27 0.00 81 1009.8
20260507025106 1 342 1.6 3.2 0.00 1.27 0.00 79 1009.7
20260507024806 1 346 0.0 3.2 0.00 1.27 0.00 79 1009.6
20260507024506 1 344 0.0 3.2 0.00 1.27 0.00 79 1009.6
20260507024206 1 342 0.0 3.2 0.00 1.27 0.00 78 1009.7
20260507023936 1 339 1.6 6.4 0.00 1.27 0.00 78 1009.5
20260507023606 2 339 1.6 6.4 0.00 1.27 0.00 77 1009.6
20260507023306 2 338 1.6 6.4 0.00 1.27 0.00 76 1009.6
20260507023027 1 337 1.6 6.4 0.00 1.27 0.00 78 1009.6
20260507022727 2 339 1.6 3.2 0.00 1.27 0.00 77 1009.6
20260507022406 1 341 1.6 3.2 0.00 1.27 0.00 76 1009.6
20260507022106 1 341 1.6 6.4 0.00 1.27 0.00 79 1009.4
20260507021806 2 338 1.6 6.4 0.00 1.27 0.00 78 1009.5
20260507021506 2 337 3.2 6.4 0.00 1.27 0.00 75 1009.6
20260507021206 2 339 3.2 6.4 0.00 1.27 0.00 76 1009.5
20260507020906 1 340 1.6 6.4 0.00 1.27 0.00 78 1009.7
20260507020606 1 344 1.6 3.2 0.00 1.27 0.00 77 1009.5
20260507020306 2 349 0.0 3.2 0.00 1.27 0.00 78 1009.6
20260507020027 2 348 0.0 3.2 0.00 1.27 0.00 77 1009.6
20260507015706 1 345 0.0 3.2 0.00 1.27 0.00 75 1009.6
20260507015406 1 341 1.6 3.2 0.00 1.27 0.00 78 1009.5
20260507015106 1 338 1.6 3.2 0.00 1.27 0.00 78 1009.6
20260507014806 1 348 1.6 3.2 0.00 1.27 0.00 78 1009.6
20260507014506 1 20 0.0 3.2 0.00 1.27 0.00 78 1009.6
20260507014207 1 59 0.0 3.2 0.00 1.27 0.00 78 1009.5
20260507013927 1 55 0.0 3.2 0.00 1.27 0.00 78 1009.5
20260507013606 1 46 0.0 3.2 0.00 1.27 0.00 78 1009.6
20260507013327 1 15 0.0 3.2 0.00 1.27 0.00 78 1009.6
20260507013006 1 350 1.6 3.2 0.00 1.27 0.00 77 1009.5
20260507012706 2 339 1.6 3.2 0.00 1.27 0.00 77 1009.7
20260507012406 2 337 1.6 6.4 0.00 1.27 0.00 76 1009.5
20260507012106 2 337 1.6 6.4 0.00 1.27 0.00 75 1009.5
20260507011827 2 339 1.6 6.4 0.00 1.27 0.00 73 1009.5
20260507011506 2 341 1.6 6.4 0.00 1.27 0.00 73 1009.4
20260507010606 2 339 3.2 6.4 0.00 1.27 0.00 73 1009.5
20260507010306 2 332 3.2 6.4 0.00 1.27 0.00 74 1009.6
20260507010006 2 329 3.2 6.4 0.00 1.27 0.00 74 1009.7
20260507005705 2 320 1.6 3.2 0.00 1.27 0.00 76 1009.5
20260507005406 2 319 0.0 3.2 0.00 1.27 0.00 78 1009.4
20260507005106 1 0 0.0 0.0 0.00 1.27 0.00 81 1009.4
20260507004806 1 0 0.0 3.2 0.00 1.27 0.00 83 1009.5
20260507004506 1 0 0.0 3.2 0.00 1.27 0.00 83 1009.7
20260507004206 1 0 0.0 3.2 0.00 1.27 0.00 82 1009.6
20260507003905 1 0 0.0 3.2 0.00 1.27 0.00 83 1009.5
20260507003606 1 22 0.0 3.2 0.00 1.27 0.00 83 1009.6
20260507003306 1 27 0.0 3.2 0.00 1.27 0.00 82 1009.6
20260507003006 1 25 0.0 3.2 0.00 1.27 0.00 82 1009.6
20260507002706 1 21 0.0 3.2 0.00 1.27 0.00 82 1009.6
20260507002406 1 360 0.0 3.2 0.00 1.27 0.00 82 1009.7
20260507002106 1 360 0.0 3.2 0.00 1.27 0.00 81 1009.6
20260507001827 1 360 0.0 3.2 0.00 1.27 0.00 81 1009.5
20260507001506 1 0 0.0 3.2 0.00 1.27 0.00 80 1009.6
20260507001206 1 0 0.0 3.2 0.00 1.27 0.00 80 1009.4
20260507000905 1 0 0.0 3.2 0.00 1.27 0.00 79 1009.7
20260507000606 1 360 0.0 3.2 0.00 1.27 0.00 80 1009.5
20260507000306 1 360 0.0 3.2 0.00 1.27 0.00 80 1009.5
20260507000006 1 359 0.0 3.2 0.00 1.27 0.00 80 1009.7
20260506235706 1 358 0.0 3.2 0.00 1.27 0.00 81 1009.6
20260506235406 1 358 0.0 3.2 0.00 1.27 0.00 81 1009.6
20260506235106 1 0 0.0 3.2 0.00 1.27 0.00 80 1009.7
20260506234806 1 0 0.0 3.2 0.00 1.27 0.00 80 1009.6
20260506234506 2 0 0.0 3.2 0.00 1.27 0.00 79 1009.4
20260506234206 2 354 0.0 3.2 0.00 1.27 0.00 78 1009.6
20260506233906 2 346 0.0 3.2 0.00 1.27 0.00 76 1009.6
20260506233606 2 346 0.0 3.2 0.00 1.27 0.00 76 1009.5
20260506233306 2 360 0.0 3.2 0.00 1.27 0.00 77 1009.4
20260506233006 2 0 0.0 3.2 0.00 1.27 0.00 77 1009.5